| time (UTC) | temp F | wind direction | speed knots | gust knots | rain 1hr in | rain 24hr in | rain mn in | humidity % | barometer mb |
| 20260502214519 | 56 | 296 | 0.0 | 0.9 | 0.00 | 0.00 | 0.00 | 64 | 1021.4 |
| 20260502213046 | 55 | 328 | 0.0 | 0.0 | 0.00 | 0.00 | 0.00 | 65 | 1021.4 |
| 20260502211502 | 56 | 328 | 0.0 | 0.9 | 0.00 | 0.00 | 0.00 | 64 | 1021.4 |
| 20260502210038 | 57 | 325 | 0.0 | 0.0 | 0.00 | 0.00 | 0.00 | 62 | 1021.4 |
| 20260502204503 | 57 | 325 | 0.9 | 1.7 | 0.00 | 0.00 | 0.00 | 61 | 1021.3 |
| 20260502203017 | 58 | 352 | 0.0 | 1.7 | 0.00 | 0.00 | 0.00 | 60 | 1021.4 |
| 20260502201556 | 57 | 330 | 0.0 | 0.9 | 0.00 | 0.00 | 0.00 | 60 | 1021.4 |
| 20260502200013 | 58 | 302 | 0.0 | 0.9 | 0.00 | 0.00 | 0.00 | 58 | 1021.4 |
| 20260502194551 | 60 | 302 | 0.0 | 0.9 | 0.00 | 0.00 | 0.00 | 56 | 1021.2 |
| 20260502193013 | 60 | 302 | 0.9 | 0.9 | 0.00 | 0.00 | 0.00 | 54 | 1021.1 |
| 20260502191547 | 61 | 297 | 0.0 | 1.7 | 0.00 | 0.00 | 0.00 | 53 | 1021.0 |
| 20260502190016 | 62 | 296 | 0.9 | 0.9 | 0.00 | 0.00 | 0.00 | 50 | 1020.9 |
| 20260502184555 | 63 | 296 | 0.9 | 2.6 | 0.00 | 0.00 | 0.00 | 49 | 1020.8 |
| 20260502183026 | 65 | 275 | 0.0 | 1.7 | 0.00 | 0.00 | 0.00 | 47 | 1020.6 |
| 20260502181545 | 66 | 250 | 0.9 | 4.3 | 0.00 | 0.00 | 0.00 | 43 | 1020.5 |
| 20260502163038 | 72 | 167 | 2.6 | 6.1 | 0.00 | 0.00 | 0.00 | 37 | 1020.3 |
| 20260502161602 | 72 | 174 | 3.5 | 6.1 | 0.00 | 0.00 | 0.00 | 37 | 1020.5 |
| 20260502151517 | 73 | 146 | 2.6 | 7.0 | 0.00 | 0.00 | 0.00 | 38 | 1020.9 |
| 20260502123030 | 71 | 282 | 0.9 | 5.2 | 0.00 | 0.00 | 0.00 | 36 | 1022.7 |
| 20260502121515 | 70 | 218 | 2.6 | 6.1 | 0.00 | 0.00 | 0.00 | 38 | 1023.0 |
| 20260502120157 | 71 | 212 | 0.9 | 4.3 | 0.00 | 0.00 | 0.00 | 39 | 1023.2 |
| 20260502114549 | 70 | 238 | 1.7 | 5.2 | 0.00 | 0.00 | 0.00 | 37 | 1023.4 |
| 20260502113017 | 69 | 306 | 0.9 | 7.0 | 0.00 | 0.00 | 0.00 | 38 | 1023.7 |
| 20260502111601 | 68 | 313 | 0.9 | 5.2 | 0.00 | 0.00 | 0.00 | 42 | 1023.9 |
| 20260502110040 | 67 | 303 | 3.5 | 7.0 | 0.00 | 0.00 | 0.00 | 41 | 1024.1 |
| 20260502104526 | 67 | 184 | 0.9 | 4.3 | 0.00 | 0.00 | 0.00 | 43 | 1024.4 |
| 20260502103005 | 66 | 319 | 0.9 | 4.3 | 0.00 | 0.00 | 0.00 | 44 | 1024.6 |
| 20260502101623 | 66 | 219 | 0.9 | 4.3 | 0.00 | 0.00 | 0.00 | 44 | 1024.8 |
| 20260502091506 | 62 | 270 | 0.9 | 3.5 | 0.00 | 0.00 | 0.00 | 51 | 1025.5 |
| 20260502090109 | 61 | 98 | 0.0 | 3.5 | 0.00 | 0.00 | 0.00 | 52 | 1025.8 |
| 20260502080108 | 57 | 189 | 1.7 | 3.5 | 0.00 | 0.00 | 0.00 | 60 | 1026.4 |
| 20260502071513 | 54 | 118 | 0.9 | 2.6 | 0.00 | 0.00 | 0.00 | 66 | 1026.9 |
| 20260502070125 | 54 | 262 | 0.9 | 2.6 | 0.00 | 0.00 | 0.00 | 67 | 1027.0 |
| 20260502064548 | 52 | 116 | 0.0 | 1.7 | 0.00 | 0.00 | 0.00 | 69 | 1027.2 |
| 20260502063028 | 51 | 105 | 0.9 | 2.6 | 0.00 | 0.00 | 0.00 | 70 | 1027.2 |
| 20260502061507 | 51 | 126 | 0.0 | 1.7 | 0.00 | 0.00 | 0.00 | 72 | 1027.3 |
| 20260502060050 | 50 | 141 | 0.9 | 1.7 | 0.00 | 0.00 | 0.00 | 70 | 1027.4 |
| 20260502054530 | 50 | 134 | 0.0 | 2.6 | 0.00 | 0.00 | 0.00 | 71 | 1027.4 |
| 20260502053006 | 50 | 96 | 0.0 | 0.9 | 0.00 | 0.00 | 0.00 | 71 | 1027.5 |
| 20260502051603 | 48 | 341 | 0.0 | 0.9 | 0.00 | 0.00 | 0.00 | 75 | 1027.4 |
| 20260502050020 | 47 | 341 | 0.0 | 0.0 | 0.00 | 0.00 | 0.00 | 76 | 1027.4 |
| 20260502044554 | 46 | 342 | 0.0 | 0.0 | 0.00 | 0.00 | 0.00 | 79 | 1027.3 |
| 20260502043032 | 44 | 341 | 0.0 | 0.9 | 0.00 | 0.00 | 0.00 | 80 | 1027.2 |
| 20260502041502 | 44 | 342 | 0.0 | 0.9 | 0.00 | 0.00 | 0.00 | 80 | 1027.2 |
| 20260502040041 | 43 | 342 | 0.0 | 0.9 | 0.00 | 0.00 | 0.00 | 81 | 1027.2 |
| 20260502034524 | 43 | 341 | 0.0 | 0.9 | 0.00 | 0.00 | 0.00 | 82 | 1027.1 |
| 20260502033058 | 43 | 338 | 0.0 | 0.9 | 0.00 | 0.00 | 0.00 | 81 | 1027.1 |
| 20260502031530 | 43 | 338 | 0.0 | 0.9 | 0.00 | 0.00 | 0.00 | 81 | 1027.1 |
| 20260502030004 | 43 | 359 | 0.0 | 0.9 | 0.00 | 0.00 | 0.00 | 81 | 1027.2 |
| 20260502024539 | 43 | 335 | 0.0 | 1.7 | 0.00 | 0.00 | 0.00 | 81 | 1027.2 |
| 20260502023010 | 44 | 318 | 0.0 | 0.9 | 0.00 | 0.00 | 0.00 | 79 | 1027.2 |
| 20260502021549 | 44 | 326 | 0.0 | 0.9 | 0.00 | 0.00 | 0.00 | 79 | 1027.2 |
| 20260502020024 | 45 | 326 | 0.0 | 0.0 | 0.00 | 0.00 | 0.00 | 76 | 1027.2 |
| 20260502014559 | 45 | 326 | 0.0 | 0.9 | 0.00 | 0.00 | 0.00 | 76 | 1027.1 |
| 20260502013053 | 45 | 326 | 0.0 | 0.9 | 0.00 | 0.00 | 0.00 | 76 | 1027.2 |
| 20260502011520 | 45 | 326 | 0.0 | 0.9 | 0.00 | 0.00 | 0.00 | 76 | 1027.1 |
| 20260502010042 | 46 | 326 | 0.0 | 0.0 | 0.00 | 0.00 | 0.00 | 74 | 1027.1 |
| 20260502004516 | 47 | 326 | 0.9 | 1.7 | 0.00 | 0.00 | 0.00 | 71 | 1027.1 |
| 20260502003056 | 47 | 319 | 0.0 | 0.9 | 0.00 | 0.00 | 0.00 | 71 | 1027.1 |
| 20260502001526 | 47 | 319 | 0.9 | 1.7 | 0.00 | 0.00 | 0.00 | 73 | 1027.2 |
| 20260502000105 | 47 | 298 | 0.0 | 1.7 | 0.00 | 0.00 | 0.00 | 73 | 1027.3 |
| 20260501234530 | 48 | 294 | 0.0 | 0.9 | 0.00 | 0.00 | 0.00 | 70 | 1027.3 |
| 20260501233104 | 47 | 294 | 0.0 | 0.9 | 0.00 | 0.00 | 0.00 | 71 | 1027.2 |
| 20260501231534 | 48 | 360 | 0.0 | 1.7 | 0.00 | 0.00 | 0.00 | 69 | 1027.2 |
| 20260501230006 | 49 | 74 | 0.0 | 0.9 | 0.00 | 0.00 | 0.00 | 67 | 1027.1 |
| 20260501224531 | 50 | 112 | 0.0 | 2.6 | 0.00 | 0.00 | 0.00 | 65 | 1027.0 |
| 20260501223102 | 51 | 359 | 0.9 | 2.6 | 0.00 | 0.00 | 0.00 | 63 | 1026.9 |
| 20260501221532 | 51 | 61 | 0.9 | 2.6 | 0.00 | 0.00 | 0.00 | 62 | 1026.9 |
| 20260501220002 | 49 | 340 | 0.9 | 2.6 | 0.00 | 0.00 | 0.00 | 62 | 1026.8 |